FW5884 Weather Reports


time (UTC)temp
F
wind
direction
speed
knots
gust
knots
rain 1hr
in
rain 24hr
in
rain mn
in
humidity
%
barometer
mb
20260506204542 59 120 0.0 0.0 0.00 0.88 0.88 94 1011.6
20260506204041 59 120 0.0 0.0 0.00 0.88 0.88 94 1011.6
20260506203540 59 120 0.0 0.0 0.00 0.88 0.88 94 1011.6
20260506203048 59 120 0.0 0.0 0.00 0.88 0.88 94 1011.6
20260506202540 59 120 0.0 0.0 0.00 0.88 0.88 94 1011.5
20260506202040 59 120 0.0 0.0 0.00 0.88 0.88 94 1011.6
20260506201554 59 120 0.0 0.0 0.00 0.88 0.88 94 1011.5
20260506201040 59 120 0.0 0.0 0.00 0.88 0.88 94 1011.5
20260506200539 59 120 0.0 0.0 0.00 0.88 0.88 94 1011.5
20260506200039 59 120 0.0 0.0 0.00 0.88 0.88 93 1011.5
20260506195540 59 120 0.0 0.0 0.00 0.88 0.88 93 1011.2
20260506195041 59 121 0.0 0.0 0.00 0.88 0.88 93 1011.3
20260506194548 59 120 0.0 0.0 0.00 0.88 0.88 93 1011.3
20260506194040 59 162 0.0 0.9 0.00 0.88 0.88 93 1011.2
20260506193540 59 85 0.0 2.6 0.00 0.88 0.88 94 1011.0
20260506193044 59 129 0.0 2.6 0.00 0.88 0.88 94 1011.0
20260506192538 59 102 0.0 0.9 0.00 0.88 0.88 94 1010.9
20260506192040 59 102 0.0 0.9 0.00 0.88 0.88 94 1010.8
20260506191542 59 105 0.0 0.0 0.00 0.88 0.88 94 1010.7
20260506191038 59 105 0.0 0.0 0.00 0.88 0.88 94 1010.6
20260506190537 60 105 0.0 0.0 0.00 0.88 0.88 93 1010.5
20260506190038 60 105 0.0 0.0 0.00 0.88 0.88 93 1010.4
20260506185537 60 105 0.0 2.6 0.00 0.88 0.88 93 1010.2
20260506185037 60 105 0.0 2.6 0.00 0.88 0.88 93 1010.3
20260506184547 60 129 0.0 0.9 0.00 0.88 0.88 94 1010.2
20260506184037 60 129 0.0 1.7 0.00 0.88 0.88 94 1010.0
20260506183539 60 155 0.0 1.7 0.00 0.88 0.88 94 1010.1
20260506183040 60 127 0.0 1.7 0.00 0.88 0.88 94 1010.1
20260506182536 60 113 0.0 3.5 0.00 0.88 0.88 95 1010.1
20260506182036 60 137 0.0 0.9 0.00 0.88 0.88 95 1010.1
20260506181536 60 96 0.0 0.0 0.00 0.88 0.88 95 1010.2
20260506181035 60 96 0.0 0.0 0.00 0.88 0.88 94 1010.1
20260506180537 60 125 0.0 0.0 0.00 0.88 0.88 94 1010.2
20260506180036 61 125 0.0 0.0 0.00 0.88 0.88 94 1010.1
20260506175536 61 90 0.0 0.0 0.06 0.88 0.88 94 1010.1
20260506175035 61 87 0.0 0.0 0.16 0.88 0.88 94 1010.1
20260506174535 61 87 0.0 0.0 0.16 0.88 0.88 94 1010.1
20260506174035 61 87 0.0 0.0 0.16 0.88 0.88 94 1010.1
20260506173538 61 82 0.0 0.0 0.16 0.88 0.88 94 1010.2
20260506173040 61 82 0.0 0.0 0.16 0.88 0.88 93 1010.1
20260506172534 61 114 0.0 0.0 0.16 0.88 0.88 93 1010.1
20260506172034 61 117 0.0 0.0 0.16 0.88 0.88 92 1010.0
20260506171544 61 117 0.0 0.0 0.16 0.88 0.88 92 1010.0
20260506171035 61 117 0.0 0.9 0.16 0.88 0.88 91 1009.8
20260506170533 62 77 0.0 3.5 0.16 0.88 0.88 91 1009.7
20260506170034 62 150 0.0 3.5 0.16 0.88 0.88 89 1009.8
20260506165535 63 158 0.0 3.5 0.06 0.80 0.78 86 1009.9
20260506165033 64 107 0.0 1.7 0.00 0.75 0.72 85 1009.2
20260506164533 64 92 0.0 4.3 0.00 0.75 0.72 84 1008.9
20260506164031 64 133 0.0 4.3 0.00 0.75 0.72 84 1008.9
20260506163532 64 109 0.0 2.6 0.00 0.75 0.72 84 1009.0
20260506163039 64 155 0.0 5.2 0.00 0.75 0.72 84 1009.2
20260506162532 64 137 0.9 5.2 0.00 0.75 0.72 84 1009.3
20260506162032 64 104 0.0 2.6 0.00 0.75 0.72 84 1009.5
20260506161532 65 165 0.0 0.9 0.00 0.75 0.72 85 1009.6
20260506161027 65 135 0.0 0.9 0.00 0.75 0.72 86 1009.6
20260506160535 65 101 0.0 0.0 0.00 0.75 0.72 87 1009.6
20260506160030 65 101 0.0 0.0 0.00 0.75 0.72 87 1009.6
20260506155526 64 154 0.0 0.0 0.00 0.80 0.72 86 1009.7
20260506155025 64 77 0.0 2.6 0.00 0.80 0.72 88 1009.6
20260506154531 64 133 0.0 2.6 0.00 0.80 0.72 88 1009.7
20260506154026 64 171 0.0 2.6 0.00 0.80 0.72 88 1009.7
20260506153524 63 123 0.0 2.6 0.00 0.80 0.72 87 1009.7
20260506153022 64 167 0.0 0.9 0.00 0.80 0.72 89 1009.7
20260506152525 63 101 0.0 2.6 0.00 0.80 0.72 89 1009.9
20260506152020 63 148 0.0 2.6 0.00 0.80 0.72 89 1010.0
20260506151521 63 159 0.0 0.9 0.00 0.80 0.72 89 1010.1
20260506151022 63 86 0.0 0.0 0.00 0.80 0.72 89 1010.1
20260506150519 63 109 0.0 0.0 0.00 0.80 0.72 91 1010.3
20260506150019 63 108 0.0 2.6 0.00 0.80 0.72 90 1010.4
20260506145518 63 129 0.0 0.0 0.00 0.83 0.72 93 1010.4
20260506145016 63 129 0.0 0.9 0.00 0.83 0.72 93 1010.4
20260506144516 62 110 0.0 0.9 0.00 0.83 0.72 95 1010.5
20260506144014 61 316 0.0 0.0 0.00 0.83 0.72 95 1010.5
20260506143513 61 359 0.0 0.0 0.00 0.83 0.72 95 1010.6
20260506143016 61 112 0.0 0.0 0.00 0.83 0.72 95 1010.6
20260506142510 60 111 0.0 0.0 0.00 0.83 0.72 95 1010.7
20260506142011 60 111 0.0 0.0 0.00 0.83 0.72 95 1010.6
20260506141510 60 111 0.0 0.0 0.00 0.83 0.72 94 1010.7
20260506141009 60 112 0.0 0.0 0.00 0.83 0.72 94 1010.7
20260506140511 60 113 0.0 0.0 0.00 0.83 0.72 94 1010.7
20260506140008 60 113 0.0 0.0 0.00 0.83 0.72 94 1010.7
20260506135510 60 113 0.0 0.0 0.00 0.83 0.72 94 1010.8
20260506135008 60 113 0.0 0.0 0.00 0.83 0.72 94 1010.8
20260506134508 60 113 0.0 0.0 0.00 0.83 0.72 93 1010.9
20260506134007 60 94 0.0 0.0 0.00 0.83 0.72 93 1011.0
20260506133507 60 92 0.0 0.0 0.00 0.83 0.72 93 1011.0
20260506133006 60 92 0.0 0.0 0.00 0.83 0.72 93 1011.0
20260506132505 60 92 0.0 0.0 0.01 0.83 0.72 93 1011.1
20260506132005 60 92 0.0 0.0 0.01 0.83 0.72 93 1011.2
20260506131505 60 72 0.0 0.0 0.01 0.83 0.72 93 1011.2
20260506131005 60 134 0.0 0.0 0.01 0.83 0.72 93 1011.3
20260506130508 60 153 0.0 2.6 0.01 0.83 0.72 93 1011.4
20260506130006 60 152 0.0 2.6 0.01 0.84 0.72 93 1011.3
20260506125503 60 137 0.0 1.7 0.01 0.84 0.72 93 1011.5
20260506125005 60 110 0.0 0.9 0.02 0.84 0.72 93 1011.6
20260506124503 59 106 0.0 1.7 0.03 0.84 0.72 94 1011.7
20260506124005 59 143 0.0 3.5 0.03 0.84 0.72 94 1011.6
20260506123504 59 124 0.9 3.5 0.03 0.84 0.72 94 1011.6
20260506123002 59 155 0.0 5.2 0.03 0.84 0.72 94 1011.5
20260506122502 59 98 0.9 5.2 0.02 0.83 0.72 94 1011.5
20260506122001 59 98 0.0 2.6 0.02 0.83 0.72 94 1011.5
20260506121607 59 134 0.0 2.6 0.02 0.83 0.72 94 1011.4
20260506121500 59 151 0.0 2.6 0.02 0.83 0.72 94 1011.4
20260506121001 59 113 0.0 1.7 0.02 0.83 0.72 94 1011.5
20260506120600 59 136 0.0 0.0 0.02 0.83 0.72 94 1011.4
20260506120111 59 152 0.0 1.7 0.02 0.83 0.72 94 1011.5
20260506115601 59 153 0.0 1.7 0.02 0.87 0.72 94 1011.5
20260506115059 59 151 0.0 2.6 0.02 0.86 0.71 94 1011.6
20260506114621 59 148 0.0 2.6 0.01 0.85 0.70 93 1011.4
20260506114059 59 146 0.0 3.5 0.00 0.84 0.69 93 1011.5
20260506113701 59 122 0.0 3.5 0.00 0.84 0.69 93 1011.5
20260506113100 59 127 0.0 3.5 0.00 0.84 0.69 93 1011.5
20260506112601 59 92 0.0 3.5 0.00 0.84 0.69 93 1011.5
20260506112058 59 120 0.0 6.1 0.00 0.84 0.69 93 1011.5
20260506111558 59 63 0.0 4.3 0.00 0.84 0.69 93 1011.5
20260506111058 59 120 0.0 3.5 0.01 0.84 0.69 94 1011.5
20260506110601 59 156 0.9 5.2 0.01 0.84 0.69 93 1011.5
20260506110057 59 138 0.9 5.2 0.01 0.84 0.69 94 1011.5
20260506105601 59 73 0.0 3.5 0.01 0.85 0.69 94 1011.5
20260506105056 59 134 0.0 3.5 0.01 0.85 0.69 95 1011.5
20260506104557 59 153 0.0 0.9 0.01 0.85 0.69 95 1011.5
20260506104055 59 101 0.0 0.9 0.03 0.85 0.69 95 1011.5
20260506103555 58 146 0.0 4.3 0.07 0.85 0.69 95 1011.6
20260506103055 58 82 0.9 4.3 0.08 0.85 0.69 95 1011.8
20260506102553 58 146 0.0 4.3 0.09 0.85 0.69 95 1011.7
20260506102052 58 127 0.9 4.3 0.10 0.85 0.69 95 1011.8
20260506101552 58 134 0.0 1.7 0.11 0.85 0.69 95 1012.0
20260506101053 58 134 0.0 1.7 0.11 0.84 0.69 95 1012.1
20260506100552 58 128 0.0 5.2 0.11 0.84 0.69 95 1011.9
20260506100052 58 118 0.0 5.2 0.11 0.84 0.69 95 1012.0
20260506095552 58 129 0.0 2.6 0.11 0.85 0.69 95 1012.0
20260506095052 58 149 0.0 1.7 0.11 0.85 0.69 95 1012.0
20260506094552 58 132 0.0 1.7 0.11 0.85 0.69 95 1012.1
20260506094051 58 115 0.0 0.9 0.08 0.82 0.65 95 1012.1
20260506093550 58 124 0.0 3.5 0.06 0.79 0.62 95 1012.0
20260506093107 58 157 0.0 1.7 0.05 0.78 0.61 95 1012.1
20260506092549 58 146 0.0 3.5 0.05 0.77 0.61 95 1012.1
20260506092049 59 150 0.0 3.5 0.03 0.76 0.59 95 1012.1
20260506091549 59 154 0.0 1.7 0.02 0.74 0.56 95 1012.2
20260506091049 59 98 0.0 1.7 0.03 0.74 0.56 95 1012.1
20260506090548 59 116 0.0 4.3 0.06 0.74 0.56 96 1012.0
20260506090055 59 120 0.0 4.3 0.07 0.74 0.56 95 1011.9
20260506085547 59 127 0.0 2.6 0.09 0.74 0.56 96 1011.9
20260506085047 59 129 0.0 3.5 0.09 0.74 0.56 96 1011.9
20260506084546 59 89 0.9 3.5 0.10 0.74 0.56 96 1011.9
20260506084045 58 113 0.0 1.7 0.11 0.74 0.56 96 1011.9
20260506083545 58 128 0.0 3.5 0.11 0.73 0.56 96 1011.9
20260506083045 58 125 0.0 3.5 0.13 0.73 0.56 96 1011.9
20260506082544 58 114 0.0 0.0 0.13 0.72 0.56 96 1012.0
20260506082044 58 106 0.0 0.9 0.15 0.72 0.56 96 1012.0
20260506081544 58 103 0.0 0.0 0.16 0.72 0.55 96 1012.0
20260506081044 58 94 0.0 0.0 0.14 0.70 0.54 96 1011.9
20260506080544 58 94 0.0 0.0 0.13 0.69 0.52 96 1011.8
20260506073043 58 81 0.0 0.0 0.13 0.61 0.44 96 1011.8
20260506072541 58 81 0.0 0.0 0.13 0.57 0.42 96 1011.8
20260506072042 58 80 0.0 0.0 0.13 0.56 0.40 95 1011.8
20260506071540 58 80 0.0 0.0 0.12 0.56 0.39 95 1011.8
20260506071042 58 80 0.0 0.0 0.12 0.55 0.39 95 1011.8
20260506070541 58 102 0.0 0.0 0.12 0.55 0.39 95 1011.8
20260506062039 58 105 0.0 0.0 0.28 0.44 0.28 95 1011.8
20260506061554 58 106 0.0 0.9 0.27 0.43 0.27 94 1011.8
20260506061039 58 101 0.0 0.9 0.27 0.43 0.27 94 1011.7
20260506060538 58 27 0.0 0.9 0.27 0.43 0.27 94 1011.6
20260506051034 58 354 0.0 0.0 0.00 0.17 0.00 93 1011.2
20260506050534 58 354 0.0 0.0 0.00 0.17 0.00 93 1011.3
20260506045033 58 354 0.0 0.0 0.00 0.17 0.00 93 1011.5
20260506044534 58 354 0.0 0.0 0.00 0.17 0.00 93 1011.4
20260506044032 58 338 0.0 0.0 0.00 0.17 0.00 93 1011.6
20260506043532 58 338 0.0 0.0 0.00 0.17 0.00 93 1011.6
20260506043034 58 338 0.0 0.0 0.00 0.17 0.00 93 1011.6
20260506042532 57 338 0.0 0.0 0.00 0.17 0.00 93 1011.5
20260506042033 57 338 0.0 0.0 0.00 0.17 0.00 92 1011.6
20260506041531 57 338 0.0 0.0 0.00 0.17 0.00 92 1011.5
20260506041034 58 338 0.0 0.9 0.00 0.17 0.00 92 1011.3
20260506040534 58 338 0.0 0.9 0.00 0.17 0.00 92 1011.4
20260506040030 58 338 0.0 0.0 0.00 0.17 0.00 92 1011.6
20260506035531 58 338 0.0 0.9 0.00 0.17 0.00 92 1011.6
20260506035029 58 319 0.0 0.9 0.00 0.17 0.00 93 1011.7
20260506034529 57 65 0.0 0.0 0.00 0.17 0.00 93 1011.7
20260506034030 57 65 0.0 0.0 0.00 0.17 0.00 92 1011.8
20260506033529 58 65 0.0 0.0 0.00 0.17 0.00 92 1011.8
20260506033027 58 65 0.0 0.0 0.00 0.17 0.00 92 1011.9
20260506032526 58 65 0.0 0.0 0.00 0.17 0.00 92 1011.8
20260506032026 58 65 0.0 0.9 0.00 0.17 0.00 92 1012.0
20260506031526 58 65 0.0 0.9 0.00 0.17 0.00 92 1011.9
20260506031025 58 65 0.0 0.0 0.00 0.17 0.00 92 1012.0
20260506030529 58 65 0.0 0.0 0.00 0.17 0.00 92 1012.1
20260506030024 58 65 0.0 0.0 0.00 0.17 0.00 92 1012.1
20260506025526 58 65 0.0 0.0 0.00 0.17 0.00 92 1012.0
20260506025022 58 65 0.0 0.0 0.00 0.17 0.00 92 1012.0
20260506024520 58 65 0.0 0.0 0.00 0.17 0.00 92 1012.1
20260506024020 58 65 0.0 0.0 0.00 0.17 0.00 92 1012.1
20260506023520 58 65 0.0 0.0 0.00 0.17 0.00 92 1012.2
20260506023020 58 65 0.0 0.0 0.00 0.17 0.00 92 1012.3
20260506022517 58 65 0.0 0.0 0.00 0.17 0.00 92 1012.4
20260506022017 58 65 0.0 0.0 0.00 0.17 0.00 92 1012.3
20260506021516 58 61 0.0 0.0 0.00 0.17 0.00 92 1012.3
20260506021016 58 60 0.0 0.0 0.00 0.17 0.00 92 1012.3
20260506020515 58 85 0.0 0.0 0.00 0.17 0.00 92 1012.4
20260506020030 58 85 0.0 0.0 0.00 0.17 0.00 92 1012.4
20260506015516 58 85 0.0 0.0 0.00 0.17 0.00 92 1012.5
20260506015018 58 85 0.0 0.0 0.00 0.17 0.00 92 1012.4
20260506014515 58 85 0.0 0.0 0.00 0.17 0.00 92 1012.5
20260506014015 58 85 0.0 0.0 0.00 0.17 0.00 91 1012.5
20260506013520 58 85 0.0 0.0 0.00 0.17 0.00 91 1012.5
20260506013012 58 85 0.0 0.0 0.00 0.17 0.00 91 1012.6
20260506012511 58 85 0.0 0.0 0.00 0.17 0.00 91 1012.4
20260506012009 58 85 0.0 0.0 0.00 0.17 0.00 91 1012.5
20260506011507 58 84 0.0 0.0 0.00 0.17 0.00 91 1012.5
20260506011007 58 84 0.0 0.0 0.00 0.17 0.00 91 1012.4
20260506010505 58 103 0.0 0.0 0.00 0.17 0.00 91 1012.4
20260506010005 58 103 0.0 0.0 0.00 0.17 0.00 91 1012.4
20260506005507 58 103 0.0 0.0 0.00 0.17 0.00 91 1012.4
20260506005004 58 117 0.0 2.6 0.00 0.17 0.00 91 1012.3
20260506004514 58 311 0.0 2.6 0.00 0.17 0.00 92 1012.4
20260506004004 58 143 0.0 0.0 0.00 0.17 0.00 91 1012.3
20260506003504 58 143 0.0 0.0 0.00 0.17 0.00 91 1012.2
20260506003004 58 143 0.0 0.0 0.00 0.17 0.00 91 1012.3
20260506002507 58 143 0.0 0.0 0.00 0.17 0.00 91 1012.3
20260506002003 58 143 0.0 0.0 0.00 0.17 0.00 91 1012.3
20260506001503 58 143 0.0 0.9 0.00 0.17 0.00 91 1012.3
20260506001002 58 143 0.0 0.9 0.00 0.17 0.00 91 1012.3
20260506000501 58 229 0.0 0.0 0.00 0.17 0.00 91 1012.4
20260506000000 58 165 0.0 0.0 0.00 0.17 0.00 91 1012.5
20260505235501 58 165 0.0 0.0 0.00 0.17 0.00 91 1012.5
20260505235101 58 165 0.0 0.0 0.00 0.17 0.00 91 1012.6
20260505234616 58 165 0.0 0.0 0.00 0.17 0.00 91 1012.7
20260505234059 58 162 0.0 0.0 0.00 0.17 0.00 91 1012.7
20260505233600 58 162 0.0 0.0 0.00 0.17 0.00 90 1012.7
20260505233059 58 162 0.0 0.0 0.00 0.17 0.00 90 1012.8
20260505232558 58 162 0.0 0.9 0.00 0.17 0.00 91 1012.8
20260505232057 57 118 0.0 0.9 0.00 0.17 0.00 91 1012.8
20260505231559 57 168 0.0 0.9 0.00 0.17 0.00 92 1012.8
20260505231055 57 129 0.0 0.9 0.00 0.17 0.00 92 1012.9
20260505230554 57 82 0.0 0.9 0.00 0.17 0.00 93 1012.9
20260505230055 57 82 0.0 0.0 0.00 0.17 0.00 93 1012.9
20260505225554 57 82 0.0 0.0 0.00 0.17 0.00 93 1012.9
20260505225053 57 82 0.0 0.0 0.00 0.17 0.00 93 1012.8
20260505224554 57 82 0.0 0.0 0.00 0.17 0.00 93 1013.0
20260505224057 57 82 0.0 0.0 0.00 0.17 0.00 94 1012.9
20260505223551 56 82 0.0 2.6 0.00 0.17 0.00 94 1013.1
20260505223052 56 82 0.0 2.6 0.00 0.17 0.00 94 1013.0
20260505222550 56 101 0.0 0.0 0.00 0.17 0.00 95 1013.0
20260505222052 56 101 0.0 0.9 0.00 0.17 0.00 95 1013.0
20260505221557 56 101 0.0 0.9 0.00 0.17 0.00 95 1013.0
20260505221049 56 98 0.0 0.0 0.00 0.17 0.00 95 1013.1
20260505220549 56 98 0.0 0.0 0.00 0.17 0.00 95 1013.2
20260505220103 56 98 0.0 0.0 0.00 0.17 0.00 95 1013.2
20260505215548 56 98 0.0 0.9 0.00 0.17 0.17 95 1013.3
20260505215047 56 98 0.0 0.9 0.00 0.17 0.17 95 1013.3
20260505214554 56 101 0.0 0.0 0.00 0.17 0.17 95 1013.3
20260505214050 56 101 0.0 0.0 0.00 0.17 0.17 95 1013.4
20260505213547 56 101 0.0 0.0 0.00 0.17 0.17 95 1013.4
20260505213047 56 101 0.0 0.0 0.00 0.17 0.17 95 1013.4
20260505212547 56 101 0.0 0.0 0.00 0.17 0.17 95 1013.3
20260505212047 56 101 0.0 0.0 0.00 0.17 0.17 95 1013.4
20260505211611 56 101 0.0 0.0 0.00 0.17 0.17 95 1013.4
20260505211046 56 101 0.0 0.0 0.00 0.17 0.17 95 1013.5
20260505210546 56 101 0.0 0.0 0.00 0.17 0.17 95 1013.6
20260505210047 56 101 0.0 0.0 0.00 0.17 0.17 95 1013.6
20260505205546 56 101 0.0 0.0 0.00 0.17 0.17 95 1013.5
20260505205046 57 101 0.0 0.0 0.00 0.17 0.17 95 1013.4